Zurück zum Katalog

FENGYUN 1C DEB

AktivSSO
NORAD 32197·DEBRIS·🇨🇳 China

Gestartet May 10, 1999 von Taiyuan Satellite Launch Center

Loading…

Nächste Überflüge (nächste 24 Stunden)

TLE

AktuellSource: Space-Track

Epoche: Sep 14, 2026, 14:42 UTC

1 32197U 99025CUT 26257.61281681  .00000509  00000-0  17573-3 0  9992
2 32197  98.8952 179.3240 0161362 142.0178 340.2105 14.33233662983742

Verfolge FENGYUN 1C DEB in Echtzeit mit AllMySat

Download on the App Store